sat.trackr.live / text

‹ back to catalog

STARLINK-32740

NORAD 62754 · 2025-014V

PAYLOAD ACTIVE UNKNOWN

§ Identity

Operator
Country
US
Launch date
2025-01-21
Launch site
AFETR
Launch vehicle
Mass (kg)
RCS (m²)

Purposes: comms

External: N2YO · Heavens-Above · Gunter

§ Orbital elements

Epoch: 2026-05-25T04:51:51.792192Z

Period
94.27 min
Inclination
43.0011°
Eccentricity
0.0001601
Mean motion
15.27598167 rev/d
Perigee alt
481.9 km
Apogee alt
484.1 km
Semi-major
6,861.1 km
B*
1.0817e-3
RAAN
81.8943°
Arg perigee
259.0156°
Mean anomaly
101.0516°
Rev number
7,496

§ Raw data

STARLINK-327401 62754U 25014V   26145.20268278  .00029641  00000+0  10817-2 0  99992 62754  43.0011  81.8943 0001601 259.0156 101.0516 15.27598167 74965

JSON: /api/v1/satellites/62754 · /tle

For live sub-satellite position, see the globe view (requires WebGL).

§ Visibility from observer

Set your observer location to see the next 7 days of passes ≥ 10°. The values pass through the URL so the page stays shareable.

No JS? Fill the form by hand. The geolocation button needs JavaScript.